Location: Caltech
(34.1382°N, 118.1253°W)
Time: 19:21:28
(UTC-07:00)

Cosmos 1980 Rocket - Visible Passes

Search period start: 24 July 2016 00:00
Search period end: 03 August 2016 00:00
Orbit: 828 x 851 km, 71.0° (Epoch: 24 July)

Date Brightness Start Highest point End Pass type
(mag) Time Alt. Az. Time Alt. Az. Time Alt. Az.
24 Jul 3.0 03:57:47 22° SSE 04:01:04 46° ESE 04:06:26 10° NE visible
25 Jul 3.1 03:42:57 27° SSE 03:45:25 43° ESE 03:50:44 10° NE visible
25 Jul 3.6 05:25:13 10° WSW 05:29:34 23° WNW 05:33:57 10° N visible
26 Jul 3.1 03:28:05 32° SE 03:29:47 40° ESE 03:35:01 10° NE visible
26 Jul 3.5 05:09:52 12° WSW 05:13:52 24° WNW 05:18:25 10° N visible
27 Jul 3.2 03:13:09 34° SE 03:14:09 37° ESE 03:19:18 10° NE visible
27 Jul 3.4 04:54:56 16° WSW 04:58:11 26° WNW 05:02:51 10° N visible
28 Jul 3.3 02:58:11 34° ESE 02:58:31 34° ESE 03:03:34 10° NE visible
28 Jul 3.3 04:39:58 20° W 04:42:30 27° WNW 04:47:17 10° N visible
29 Jul 3.4 02:43:10 32° E 02:43:10 32° E 02:47:50 10° NE visible
29 Jul 3.3 04:24:57 24° W 04:26:48 29° WNW 04:31:42 10° N visible
30 Jul 3.7 02:28:07 28° E 02:28:07 28° E 02:32:06 10° NE visible
30 Jul 3.1 04:09:54 29° W 04:11:07 31° WNW 04:16:07 10° N visible
31 Jul 3.9 02:13:01 25° ENE 02:13:01 25° ENE 02:16:20 10° NE visible
31 Jul 3.0 03:54:48 33° WNW 03:55:26 33° WNW 04:00:32 10° N visible
01 Aug 4.1 01:57:54 21° ENE 01:57:54 21° ENE 02:00:35 10° NE visible
01 Aug 3.0 03:39:41 36° WNW 03:39:46 36° WNW 03:44:57 10° N visible
02 Aug 4.3 01:42:45 18° ENE 01:42:45 18° ENE 01:44:48 10° NE visible
02 Aug 3.0 03:24:31 38° NW 03:24:31 38° NW 03:29:22 10° N visible
